Weather History for KMKS - September, 2013

Change the Weather History Date:

Saturday, September 28, 2013

  Actual Average (KCHS) Record (KCHS)
Temperature  
Mean Temperature 69 °F 73 °F  
Max Temperature 78 °F 82 °F 94 °F (1986)
Min Temperature 60 °F 63 °F 50 °F (1962)
Degree Days  
Heating Degree Days 0 0  
Month to date heating degree days 0  
Since 1 July heating degree days 0  
Cooling Degree Days 4 8  
Month to date cooling degree days 318  
Year to date cooling degree days 2123  
Growing Degree Days 19 (Base 50)    
Moisture  
Dew Point 61 °F    
Average Humidity 78    
Maximum Humidity 94    
Minimum Humidity 61    
Precipitation  
Precipitation 0.00 in 0.18 in 4.96 in (1999)
Month to date precipitation 5.76  
Year to date precipitation 41.40  
Sea Level Pressure  
Sea Level Pressure 30.12 in    
Wind  
Wind Speed 8 mph (NNE)    
Max Wind Speed 14 mph    
Max Gust Speed 18 mph    
Visibility 10 miles    
Events      
T = Trace of Precipitation, MM = Missing Value Source: NWS Daily Summary

Daily Weather History Graph

Daily Weather History Graph

Search for Another Location

Airport or City:

Trip Planner

Search our weather history database for the weather conditions in past years. The results will help you decide how hot, cold, wet, or windy it might be!

Date:

Astronomy

Sep. 28, 2013 Rise Set
Actual Time 7:12 AM EDT 7:08 PM EDT
Civil Twilight 6:47 AM EDT 7:33 PM EDT
Nautical Twilight 6:19 AM EDT 8:01 PM EDT
Astronomical Twilight 5:50 AM EDT 8:30 PM EDT
Moon 1:14 AM EDT (9/28) 3:11 PM EDT (9/28)
Length of Visible Light 12h 45m
Length of Day
11h 55m
Last Quarter, 36% of the Moon is Illuminated
Sep 28
Last Quarter
Oct 4
New
Oct 11
First Quarter
Oct 18
Full
Oct 26
Last Quarter

Hourly Weather History & Observations

Time (EDT) Temp. Dew Point Humidity Pressure Visibility Wind Dir Wind Speed Gust Speed Precip Events Conditions
12:15 AM 64.4 °F 59.0 °F 83% 30.12 in 10.0 mi NE 8.1 mph - N/A   Clear
12:35 AM 64.4 °F 59.0 °F 83% 30.12 in 10.0 mi NE 9.2 mph - N/A   Clear
12:55 AM 64.4 °F 59.0 °F 83% 30.12 in 10.0 mi NE 6.9 mph - N/A   Clear
1:15 AM 64.4 °F 59.0 °F 83% 30.12 in 10.0 mi NE 9.2 mph - N/A   Clear
1:35 AM 64.4 °F 57.2 °F 77% 30.12 in 10.0 mi NE 6.9 mph - N/A   Clear
1:55 AM 62.6 °F 57.2 °F 82% 30.12 in 10.0 mi NE 8.1 mph - N/A   Clear
2:15 AM 62.6 °F 57.2 °F 82% 30.12 in 10.0 mi NE 9.2 mph - N/A   Clear
2:35 AM 62.6 °F 57.2 °F 82% 30.11 in 10.0 mi NE 8.1 mph - N/A   Clear
2:55 AM 62.6 °F 57.2 °F 82% 30.11 in 10.0 mi NE 9.2 mph - N/A   Clear
3:15 AM 62.6 °F 57.2 °F 82% 30.10 in 10.0 mi NNE 8.1 mph - N/A   Clear
3:35 AM 60.8 °F 57.2 °F 88% 30.11 in 10.0 mi NNE 6.9 mph - N/A   Clear
3:55 AM 60.8 °F 57.2 °F 88% 30.10 in 10.0 mi NE 8.1 mph - N/A   Clear
4:15 AM 60.8 °F 57.2 °F 88% 30.10 in 10.0 mi NNE 6.9 mph - N/A   Clear
4:35 AM 60.8 °F 57.2 °F 88% 30.10 in 10.0 mi NNE 5.8 mph - N/A   Clear
4:55 AM 60.8 °F 57.2 °F 88% 30.10 in 10.0 mi NNE 6.9 mph - N/A   Clear
5:15 AM 62.6 °F 59.0 °F 88% 30.10 in 10.0 mi NNE 6.9 mph - N/A   Clear
5:35 AM 62.6 °F 59.0 °F 88% 30.10 in 10.0 mi NNE 5.8 mph - N/A   Clear
5:55 AM 62.6 °F 59.0 °F 88% 30.11 in 10.0 mi NNE 8.1 mph - N/A   Clear
6:15 AM 60.8 °F 59.0 °F 94% 30.11 in 10.0 mi NNE 8.1 mph - N/A   Scattered Clouds
6:35 AM 60.8 °F 59.0 °F 94% 30.12 in 10.0 mi NNE 6.9 mph - N/A   Scattered Clouds
6:55 AM 60.8 °F 59.0 °F 94% 30.12 in 10.0 mi NNE 8.1 mph - N/A   Scattered Clouds
7:15 AM 60.8 °F 59.0 °F 94% 30.13 in 10.0 mi NNE 6.9 mph - N/A   Mostly Cloudy
7:35 AM 60.8 °F 59.0 °F 94% 30.14 in 7.0 mi NNE 8.1 mph - N/A   Overcast
7:55 AM 60.8 °F 59.0 °F 94% 30.14 in 10.0 mi NNE 10.4 mph 16.1 mph N/A   Overcast
8:15 AM 60.8 °F 59.0 °F 94% 30.14 in 10.0 mi North 6.9 mph - N/A   Mostly Cloudy
8:35 AM 62.6 °F 59.0 °F 88% 30.15 in 7.0 mi NE 11.5 mph 17.3 mph N/A   Mostly Cloudy
8:55 AM 64.4 °F 59.0 °F 83% 30.15 in 10.0 mi NE 6.9 mph - N/A   Scattered Clouds
9:15 AM 64.4 °F 59.0 °F 83% 30.16 in 7.0 mi NE 10.4 mph - N/A   Scattered Clouds
9:35 AM 64.4 °F 59.0 °F 83% 30.16 in 7.0 mi NNE 8.1 mph - N/A   Scattered Clouds
9:55 AM 66.2 °F 60.8 °F 83% 30.16 in 10.0 mi NNE 8.1 mph - N/A   Mostly Cloudy
10:15 AM 68.0 °F 60.8 °F 78% 30.17 in 7.0 mi NNE 9.2 mph - N/A   Scattered Clouds
10:35 AM 69.8 °F 60.8 °F 73% 30.17 in 10.0 mi NNE 9.2 mph - N/A   Scattered Clouds
10:55 AM 69.8 °F 62.6 °F 78% 30.17 in 10.0 mi North 6.9 mph 16.1 mph N/A   Mostly Cloudy
11:15 AM 69.8 °F 62.6 °F 78% 30.17 in 10.0 mi NNE 9.2 mph - N/A   Overcast
11:35 AM 69.8 °F 62.6 °F 78% 30.17 in 10.0 mi North 8.1 mph - N/A   Mostly Cloudy
11:55 AM 71.6 °F 62.6 °F 73% 30.16 in 10.0 mi North 9.2 mph - N/A   Scattered Clouds
12:15 PM 73.4 °F 62.6 °F 69% 30.17 in 10.0 mi North 5.8 mph - N/A   Scattered Clouds
12:35 PM 73.4 °F 62.6 °F 69% 30.17 in 10.0 mi North 9.2 mph - N/A   Overcast
12:55 PM 73.4 °F 62.6 °F 69% 30.16 in 7.0 mi NNE 9.2 mph - N/A   Overcast
1:15 PM 75.2 °F 62.6 °F 65% 30.16 in 10.0 mi North 9.2 mph 16.1 mph N/A   Mostly Cloudy
1:35 PM 75.2 °F 64.4 °F 69% 30.14 in 10.0 mi North 10.4 mph - N/A   Scattered Clouds
1:55 PM 75.2 °F 64.4 °F 69% 30.14 in 10.0 mi NNE 10.4 mph - N/A   Mostly Cloudy
2:15 PM 77.0 °F 64.4 °F 65% 30.13 in 10.0 mi NE 13.8 mph 18.4 mph N/A   Overcast
2:35 PM 75.2 °F 64.4 °F 69% 30.12 in 10.0 mi North 8.1 mph - N/A   Overcast
2:55 PM 77.0 °F 64.4 °F 65% 30.11 in 7.0 mi North 8.1 mph - N/A   Overcast
3:15 PM 77.0 °F 64.4 °F 65% 30.11 in 10.0 mi North 9.2 mph - N/A   Overcast
3:35 PM 75.2 °F 64.4 °F 69% 30.11 in 10.0 mi NNE 6.9 mph - N/A   Overcast
3:55 PM 78.8 °F 64.4 °F 61% 30.10 in 10.0 mi NNE 9.2 mph - N/A   Scattered Clouds
4:15 PM 77.0 °F 62.6 °F 61% 30.10 in 10.0 mi ENE 10.4 mph 18.4 mph N/A   Mostly Cloudy
4:35 PM 77.0 °F 62.6 °F 61% 30.10 in 10.0 mi NNE 9.2 mph - N/A   Scattered Clouds
4:55 PM 77.0 °F 62.6 °F 61% 30.10 in 7.0 mi NNE 11.5 mph 17.3 mph N/A   Mostly Cloudy
5:15 PM 77.0 °F 62.6 °F 61% 30.10 in 7.0 mi NNE 9.2 mph - N/A   Mostly Cloudy
5:35 PM 75.2 °F 62.6 °F 65% 30.11 in 10.0 mi NNE 10.4 mph - N/A   Overcast
5:55 PM 77.0 °F 62.6 °F 61% 30.11 in 10.0 mi NE 9.2 mph - N/A   Mostly Cloudy
6:15 PM 75.2 °F 62.6 °F 65% 30.11 in 10.0 mi NNE 6.9 mph - N/A   Scattered Clouds
6:35 PM 73.4 °F 62.6 °F 69% 30.11 in 10.0 mi NNE 6.9 mph - N/A   Scattered Clouds
6:55 PM 73.4 °F 62.6 °F 69% 30.11 in 10.0 mi NNE 5.8 mph - N/A   Mostly Cloudy
7:15 PM 73.4 °F 62.6 °F 69% 30.11 in 10.0 mi NNE 5.8 mph - N/A   Overcast
7:35 PM 71.6 °F 62.6 °F 73% 30.11 in 10.0 mi NNE 3.5 mph - N/A   Scattered Clouds
7:55 PM 71.6 °F 62.6 °F 73% 30.12 in 10.0 mi NNE 4.6 mph - N/A   Scattered Clouds
8:15 PM 71.6 °F 62.6 °F 73% 30.12 in 7.0 mi NE 5.8 mph - N/A   Mostly Cloudy
8:35 PM 69.8 °F 62.6 °F 78% 30.12 in 10.0 mi NNE 5.8 mph - N/A   Mostly Cloudy
8:55 PM 69.8 °F 62.6 °F 78% 30.12 in 10.0 mi NNE 5.8 mph - N/A   Scattered Clouds
9:15 PM 69.8 °F 62.6 °F 78% 30.12 in 7.0 mi NNE 5.8 mph - N/A   Scattered Clouds
9:35 PM 68.0 °F 62.6 °F 83% 30.12 in 10.0 mi NNE 4.6 mph - N/A   Scattered Clouds
9:55 PM 68.0 °F 62.6 °F 83% 30.12 in 10.0 mi NE 6.9 mph - N/A   Clear
10:15 PM 68.0 °F 62.6 °F 83% 30.12 in 10.0 mi NE 5.8 mph - N/A   Clear
10:35 PM 68.0 °F 62.6 °F 83% 30.11 in 10.0 mi NNE 5.8 mph - N/A   Clear
10:55 PM 66.2 °F 60.8 °F 83% 30.11 in 10.0 mi NNE 5.8 mph - N/A   Clear
11:15 PM 66.2 °F 60.8 °F 83% 30.11 in 10.0 mi NNE 5.8 mph - N/A   Clear
11:35 PM 68.0 °F 60.8 °F 78% 30.11 in 10.0 mi NE 9.2 mph - N/A   Scattered Clouds
11:55 PM 68.0 °F 60.8 °F 78% 30.11 in 10.0 mi NNE 5.8 mph - N/A   Scattered Clouds